Weather in Saint-Girons

France     42°59′05″N   1°08′31″E
temp.,
°C
wind,
m/s
gust,
m/s
humid.,
%
clouds,
%
prec.,
mm/h
press.,
hPa
HPBL,
m
12 april, mon
mon1223:00+4sw2394100 0.3 1024105
02:00+3wnw3696100 1.0 1026801
05:00+2w2797100 2.2 1028512
08:000ssw229517 2.5 102974
11:00+5nw24707 0.0 10291023
14:00+9nw33465 0.0 10281550
17:00+10nnw344612 0.0 10261628
20:00+6nnw127072 0.0 102858
13 april, tue
tue1323:00+3ssw117530 0.0 103011
02:00+1s22825 0.0 103032
05:00+1s2279100 0.0 102925
08:00+2s2272100 0.0 102929
11:00+9nne114378 0.0 1028685
14:00+11nne2137100 0.0 10261067
17:00+12nne213997 0.0 10231043
20:00+7ne116575 0.0 102411
14 april, wed
wed1423:00+4s217318 0.0 102514
02:00+4s217667 0.0 102413
05:00+3sse117610 0.0 102313
08:00+4s117266 0.0 102212
11:00+11n2151100 0.0 1021502
14:00+14n2242100 0.0 10201012
17:00+14n3244100 0.0 10181267
20:00+10nne1166100 0.0 101913
15 april, thu
thu1523:00+8ssw117090 0.0 102014
02:00+7ssw117597 0.0 102024
05:00+7w007983 0.0 101912
08:00+7w007863 0.0 101925
11:00+12n215942 0.0 1019731
14:00+14nne325181 0.0 10171436
17:00+14nne324887 0.0 10151566
20:00+10nne1165100 0.0 101618
16 april, fri
fri1623:00+8wsw1171100 0.0 101711
02:00+8wsw117295 0.0 101723
05:00+6sw118299 0.0 101719
08:00+5ssw218498 0.0 101731
11:00+9nw356442 0.2 10171148
14:00+9wnw3557100 0.3 10161547
17:00+7wsw2580100 0.6 1016947
20:00+4w2791100 3.6 1018813